| time (UTC) | temp C | wind direction | speed KPH | gust KPH | rain 1hr cm | rain 24hr cm | rain mn cm | humidity % | barometer mb |
| 20260504021625 | 13 | 211 | 11.3 | 16.1 | 0.00 | 0.00 | 0.00 | 46 | 1013.5 |
| 20260504021503 | 14 | 222 | 11.3 | 17.7 | 0.00 | 0.00 | 0.00 | 47 | 1011.5 |
| 20260504021125 | 13 | 213 | 9.7 | 16.1 | 0.00 | 0.00 | 0.00 | 46 | 1013.3 |
| 20260504021003 | 14 | 240 | 9.7 | 17.7 | 0.00 | 0.00 | 0.00 | 47 | 1011.5 |
| 20260504020504 | 14 | 222 | 8.0 | 14.5 | 0.00 | 0.00 | 0.00 | 47 | 1011.5 |
| 20260504020004 | 14 | 224 | 9.7 | 14.5 | 0.00 | 0.00 | 0.00 | 47 | 1011.5 |
| 20260504015624 | 14 | 208 | 8.0 | 9.7 | 0.00 | 0.00 | 0.00 | 46 | 1013.5 |
| 20260504015125 | 14 | 198 | 8.0 | 9.7 | 0.00 | 0.00 | 0.00 | 46 | 1013.5 |
| 20260504015004 | 14 | 231 | 9.7 | 11.3 | 0.00 | 0.00 | 0.00 | 47 | 1011.5 |
| 20260504014625 | 14 | 208 | 9.7 | 17.7 | 0.00 | 0.00 | 0.00 | 46 | 1013.4 |
| 20260504014503 | 14 | 220 | 11.3 | 19.3 | 0.00 | 0.00 | 0.00 | 47 | 1011.5 |
| 20260504014124 | 14 | 214 | 9.7 | 17.7 | 0.00 | 0.00 | 0.00 | 46 | 1013.4 |
| 20260504014003 | 14 | 218 | 11.3 | 19.3 | 0.00 | 0.00 | 0.00 | 48 | 1011.5 |
| 20260504013624 | 14 | 216 | 8.0 | 12.9 | 0.00 | 0.00 | 0.00 | 46 | 1013.3 |
| 20260504013504 | 14 | 227 | 8.0 | 12.9 | 0.00 | 0.00 | 0.00 | 48 | 1011.5 |
| 20260504013125 | 14 | 223 | 8.0 | 11.3 | 0.00 | 0.00 | 0.00 | 46 | 1013.4 |
| 20260504013003 | 14 | 236 | 8.0 | 12.9 | 0.00 | 0.00 | 0.00 | 48 | 1011.5 |
| 20260504012504 | 14 | 227 | 9.7 | 12.9 | 0.00 | 0.00 | 0.00 | 47 | 1011.5 |
| 20260504012124 | 14 | 219 | 8.0 | 11.3 | 0.00 | 0.00 | 0.00 | 46 | 1013.5 |
| 20260504012003 | 14 | 209 | 8.0 | 11.3 | 0.00 | 0.00 | 0.00 | 48 | 1011.6 |
| 20260504011624 | 14 | 222 | 8.0 | 11.3 | 0.00 | 0.00 | 0.00 | 46 | 1013.6 |
| 20260504011125 | 14 | 225 | 8.0 | 12.9 | 0.00 | 0.00 | 0.00 | 46 | 1013.6 |
| 20260504011004 | 14 | 231 | 9.7 | 12.9 | 0.00 | 0.00 | 0.00 | 48 | 1011.8 |
| 20260504010625 | 14 | 216 | 9.7 | 12.9 | 0.00 | 0.00 | 0.00 | 47 | 1013.4 |
| 20260504010504 | 14 | 223 | 9.7 | 12.9 | 0.00 | 0.00 | 0.00 | 48 | 1011.5 |
| 20260504010130 | 14 | 200 | 8.0 | 12.9 | 0.00 | 0.00 | 0.00 | 47 | 1013.6 |
| 20260504010003 | 14 | 217 | 9.7 | 12.9 | 0.00 | 0.00 | 0.00 | 48 | 1011.8 |
| 20260504005624 | 14 | 200 | 8.0 | 11.3 | 0.00 | 0.00 | 0.00 | 47 | 1013.6 |
| 20260504005504 | 14 | 220 | 6.4 | 9.7 | 0.00 | 0.00 | 0.00 | 49 | 1011.9 |
| 20260504005004 | 14 | 219 | 6.4 | 9.7 | 0.00 | 0.00 | 0.00 | 49 | 1011.7 |
| 20260504004503 | 14 | 216 | 4.8 | 6.4 | 0.00 | 0.00 | 0.00 | 49 | 1011.8 |
| 20260504004124 | 14 | 220 | 6.4 | 8.0 | 0.00 | 0.00 | 0.00 | 47 | 1013.5 |
| 20260504004004 | 14 | 222 | 6.4 | 9.7 | 0.00 | 0.00 | 0.00 | 49 | 1011.8 |
| 20260504003624 | 14 | 205 | 8.0 | 12.9 | 0.00 | 0.00 | 0.00 | 47 | 1013.7 |
| 20260504003503 | 15 | 206 | 8.0 | 12.9 | 0.00 | 0.00 | 0.00 | 49 | 1011.8 |
| 20260504003125 | 14 | 195 | 8.0 | 12.9 | 0.00 | 0.00 | 0.00 | 47 | 1013.6 |
| 20260504003004 | 15 | 201 | 8.0 | 12.9 | 0.00 | 0.00 | 0.00 | 49 | 1011.8 |
| 20260504002624 | 14 | 198 | 8.0 | 11.3 | 0.00 | 0.00 | 0.00 | 48 | 1013.7 |
| 20260504002504 | 14 | 213 | 8.0 | 12.9 | 0.00 | 0.00 | 0.00 | 49 | 1011.8 |
| 20260504002124 | 14 | 198 | 6.4 | 11.3 | 0.00 | 0.00 | 0.00 | 48 | 1013.5 |
| 20260504002003 | 14 | 215 | 8.0 | 12.9 | 0.00 | 0.00 | 0.00 | 50 | 1011.9 |
| 20260504001625 | 14 | 202 | 6.4 | 6.4 | 0.00 | 0.00 | 0.00 | 48 | 1013.5 |
| 20260504001504 | 15 | 215 | 8.0 | 8.0 | 0.00 | 0.00 | 0.00 | 50 | 1011.9 |
| 20260504001125 | 14 | 193 | 6.4 | 6.4 | 0.00 | 0.00 | 0.00 | 49 | 1014.0 |
| 20260504001003 | 15 | 222 | 8.0 | 8.0 | 0.00 | 0.00 | 0.00 | 50 | 1011.8 |
| 20260504000503 | 15 | 213 | 8.0 | 11.3 | 0.00 | 0.00 | 0.00 | 51 | 1012.0 |
| 20260504000130 | 14 | 208 | 8.0 | 11.3 | 0.00 | 0.00 | 0.00 | 49 | 1013.8 |
| 20260503235625 | 15 | 202 | 6.4 | 11.3 | 0.00 | 0.00 | 0.00 | 49 | 1013.7 |
| 20260503235125 | 15 | 194 | 6.4 | 8.0 | 0.00 | 0.00 | 0.00 | 50 | 1013.8 |
| 20260503235003 | 15 | 204 | 6.4 | 9.7 | 0.00 | 0.00 | 0.00 | 50 | 1012.0 |
| 20260503234625 | 15 | 199 | 8.0 | 9.7 | 0.00 | 0.00 | 0.00 | 50 | 1013.9 |
| 20260503234504 | 15 | 196 | 8.0 | 9.7 | 0.00 | 0.00 | 0.00 | 50 | 1012.2 |
| 20260503234124 | 15 | 203 | 8.0 | 9.7 | 0.00 | 0.00 | 0.00 | 50 | 1013.9 |
| 20260503234003 | 15 | 198 | 8.0 | 9.7 | 0.00 | 0.00 | 0.00 | 50 | 1012.2 |
| 20260503233624 | 15 | 200 | 6.4 | 11.3 | 0.00 | 0.00 | 0.00 | 50 | 1013.9 |
| 20260503233503 | 15 | 215 | 6.4 | 9.7 | 0.00 | 0.00 | 0.00 | 51 | 1012.2 |
| 20260503233125 | 15 | 212 | 6.4 | 11.3 | 0.00 | 0.00 | 0.00 | 51 | 1013.9 |
| 20260503233004 | 15 | 231 | 6.4 | 9.7 | 0.00 | 0.00 | 0.00 | 51 | 1012.2 |
| 20260503232624 | 15 | 228 | 6.4 | 6.4 | 0.00 | 0.00 | 0.00 | 51 | 1014.0 |
| 20260503232503 | 15 | 233 | 6.4 | 8.0 | 0.00 | 0.00 | 0.00 | 51 | 1012.2 |
| 20260503232003 | 15 | 213 | 6.4 | 8.0 | 0.00 | 0.00 | 0.00 | 50 | 1012.2 |
| 20260503231625 | 15 | 214 | 6.4 | 6.4 | 0.00 | 0.00 | 0.00 | 50 | 1014.0 |
| 20260503231504 | 15 | 213 | 6.4 | 6.4 | 0.00 | 0.00 | 0.00 | 51 | 1012.3 |
| 20260503231125 | 15 | 216 | 6.4 | 6.4 | 0.00 | 0.00 | 0.00 | 50 | 1014.2 |
| 20260503230624 | 15 | 221 | 6.4 | 6.4 | 0.00 | 0.00 | 0.00 | 50 | 1013.9 |
| 20260503230503 | 15 | 222 | 6.4 | 6.4 | 0.00 | 0.00 | 0.00 | 51 | 1012.1 |
| 20260503230007 | 15 | 221 | 6.4 | 6.4 | 0.00 | 0.00 | 0.00 | 51 | 1012.3 |
| 20260503225625 | 15 | 223 | 4.8 | 6.4 | 0.00 | 0.00 | 0.00 | 50 | 1014.1 |
| 20260503225506 | 15 | 225 | 6.4 | 6.4 | 0.00 | 0.00 | 0.00 | 50 | 1012.3 |
| 20260503225125 | 15 | 221 | 4.8 | 6.4 | 0.00 | 0.00 | 0.00 | 49 | 1014.1 |
| 20260503225006 | 15 | 236 | 6.4 | 6.4 | 0.00 | 0.00 | 0.00 | 50 | 1012.2 |
| 20260503224625 | 15 | 211 | 4.8 | 6.4 | 0.00 | 0.00 | 0.00 | 49 | 1013.8 |
| 20260503224125 | 15 | 208 | 4.8 | 6.4 | 0.00 | 0.00 | 0.00 | 49 | 1014.3 |
| 20260503224006 | 15 | 228 | 6.4 | 6.4 | 0.00 | 0.00 | 0.00 | 50 | 1012.2 |
| 20260503223624 | 15 | 215 | 4.8 | 6.4 | 0.00 | 0.00 | 0.00 | 49 | 1014.1 |
| 20260503223506 | 15 | 223 | 6.4 | 6.4 | 0.00 | 0.00 | 0.00 | 50 | 1012.2 |
| 20260503223125 | 15 | 221 | 4.8 | 8.0 | 0.00 | 0.00 | 0.00 | 49 | 1013.8 |
| 20260503223007 | 15 | 222 | 6.4 | 9.7 | 0.00 | 0.00 | 0.00 | 50 | 1012.2 |
| 20260503222624 | 15 | 221 | 6.4 | 9.7 | 0.00 | 0.00 | 0.00 | 49 | 1014.0 |
| 20260503222124 | 15 | 223 | 6.4 | 9.7 | 0.00 | 0.00 | 0.00 | 50 | 1014.1 |
| 20260503222006 | 15 | 237 | 8.0 | 9.7 | 0.00 | 0.00 | 0.00 | 51 | 1012.4 |
| 20260503221506 | 15 | 240 | 8.0 | 9.7 | 0.00 | 0.00 | 0.00 | 51 | 1012.4 |
| 20260503221125 | 15 | 213 | 6.4 | 9.7 | 0.00 | 0.00 | 0.00 | 50 | 1014.3 |
| 20260503221006 | 15 | 225 | 8.0 | 9.7 | 0.00 | 0.00 | 0.00 | 51 | 1012.5 |
| 20260503220625 | 15 | 211 | 6.4 | 8.0 | 0.00 | 0.00 | 0.00 | 50 | 1014.2 |
| 20260503220506 | 15 | 231 | 8.0 | 9.7 | 0.00 | 0.00 | 0.00 | 51 | 1012.5 |
| 20260503220131 | 15 | 220 | 6.4 | 8.0 | 0.00 | 0.00 | 0.00 | 50 | 1014.4 |
| 20260503215625 | 15 | 223 | 6.4 | 8.0 | 0.00 | 0.00 | 0.00 | 50 | 1014.3 |
| 20260503215507 | 16 | 227 | 6.4 | 8.0 | 0.00 | 0.00 | 0.00 | 51 | 1012.5 |
| 20260503215124 | 15 | 219 | 6.4 | 8.0 | 0.00 | 0.00 | 0.00 | 50 | 1014.2 |
| 20260503215006 | 16 | 224 | 6.4 | 6.4 | 0.00 | 0.00 | 0.00 | 50 | 1012.6 |
| 20260503214625 | 16 | 223 | 6.4 | 8.0 | 0.00 | 0.00 | 0.00 | 49 | 1014.3 |
| 20260503214506 | 16 | 224 | 6.4 | 8.0 | 0.00 | 0.00 | 0.00 | 49 | 1012.6 |
| 20260503214125 | 16 | 233 | 6.4 | 8.0 | 0.00 | 0.00 | 0.00 | 49 | 1014.3 |
| 20260503214006 | 16 | 230 | 6.4 | 8.0 | 0.00 | 0.00 | 0.00 | 49 | 1012.6 |
| 20260503213624 | 16 | 230 | 4.8 | 6.4 | 0.00 | 0.00 | 0.00 | 48 | 1014.1 |
| 20260503213506 | 16 | 232 | 6.4 | 8.0 | 0.00 | 0.00 | 0.00 | 49 | 1012.4 |
| 20260503213125 | 16 | 224 | 4.8 | 6.4 | 0.00 | 0.00 | 0.00 | 48 | 1014.1 |
| 20260503213006 | 16 | 227 | 6.4 | 8.0 | 0.00 | 0.00 | 0.00 | 48 | 1012.6 |
| 20260503212625 | 16 | 224 | 6.4 | 6.4 | 0.00 | 0.00 | 0.00 | 48 | 1014.2 |
| 20260503212506 | 16 | 225 | 6.4 | 8.0 | 0.00 | 0.00 | 0.00 | 48 | 1012.4 |
| 20260503212124 | 16 | 221 | 6.4 | 6.4 | 0.00 | 0.00 | 0.00 | 48 | 1014.0 |
| 20260503212007 | 16 | 231 | 6.4 | 8.0 | 0.00 | 0.00 | 0.00 | 49 | 1012.3 |
| 20260503211624 | 16 | 217 | 6.4 | 6.4 | 0.00 | 0.00 | 0.00 | 48 | 1014.2 |
| 20260503211124 | 16 | 216 | 4.8 | 6.4 | 0.00 | 0.00 | 0.00 | 48 | 1014.4 |
| 20260503211007 | 15 | 225 | 3.2 | 6.4 | 0.00 | 0.00 | 0.00 | 50 | 1012.4 |
| 20260503210624 | 15 | 217 | 3.2 | 4.8 | 0.00 | 0.00 | 0.00 | 49 | 1014.2 |
| 20260503210130 | 15 | 212 | 3.2 | 3.2 | 0.00 | 0.00 | 0.00 | 48 | 1014.1 |
| 20260503210007 | 15 | 0 | 0.0 | 0.0 | 0.00 | 0.00 | 0.00 | 50 | 1012.5 |
| 20260503205625 | 15 | 204 | 1.6 | 3.2 | 0.00 | 0.00 | 0.00 | 47 | 1014.1 |
| 20260503205125 | 16 | 198 | 1.6 | 3.2 | 0.00 | 0.00 | 0.00 | 46 | 1014.3 |
| 20260503205006 | 15 | 225 | 1.6 | 3.2 | 0.00 | 0.00 | 0.00 | 48 | 1012.5 |
| 20260503204624 | 16 | 189 | 1.6 | 3.2 | 0.00 | 0.00 | 0.00 | 45 | 1014.1 |
| 20260503204507 | 16 | 221 | 1.6 | 3.2 | 0.00 | 0.00 | 0.00 | 47 | 1012.5 |
| 20260503204006 | 16 | 217 | 3.2 | 3.2 | 0.00 | 0.00 | 0.00 | 47 | 1012.3 |
| 20260503203506 | 16 | 222 | 3.2 | 3.2 | 0.00 | 0.00 | 0.00 | 46 | 1012.4 |
| 20260503203124 | 16 | 213 | 1.6 | 3.2 | 0.00 | 0.00 | 0.00 | 44 | 1014.2 |
| 20260503203006 | 16 | 219 | 3.2 | 3.2 | 0.00 | 0.00 | 0.00 | 46 | 1012.4 |
| 20260503202506 | 16 | 219 | 3.2 | 3.2 | 0.00 | 0.00 | 0.00 | 45 | 1012.4 |
| 20260503202124 | 17 | 221 | 1.6 | 3.2 | 0.00 | 0.00 | 0.00 | 43 | 1014.1 |
| 20260503202007 | 16 | 225 | 3.2 | 3.2 | 0.00 | 0.00 | 0.00 | 45 | 1012.4 |
| 20260503201506 | 16 | 225 | 3.2 | 3.2 | 0.00 | 0.00 | 0.00 | 45 | 1012.6 |
| 20260503201007 | 17 | 225 | 3.2 | 3.2 | 0.00 | 0.00 | 0.00 | 44 | 1012.4 |
| 20260503200506 | 17 | 225 | 3.2 | 3.2 | 0.00 | 0.00 | 0.00 | 43 | 1012.5 |
| 20260503200131 | 17 | 199 | 1.6 | 3.2 | 0.00 | 0.00 | 0.00 | 42 | 1014.3 |
| 20260503200007 | 17 | 225 | 3.2 | 3.2 | 0.00 | 0.00 | 0.00 | 43 | 1012.6 |
| 20260503195625 | 17 | 213 | 1.6 | 3.2 | 0.00 | 0.00 | 0.00 | 41 | 1014.1 |
| 20260503195506 | 17 | 225 | 3.2 | 3.2 | 0.00 | 0.00 | 0.00 | 42 | 1012.5 |
| 20260503195125 | 17 | 236 | 1.6 | 3.2 | 0.00 | 0.00 | 0.00 | 41 | 1014.1 |
| 20260503194625 | 18 | 223 | 3.2 | 4.8 | 0.00 | 0.00 | 0.00 | 41 | 1014.0 |
| 20260503194125 | 18 | 204 | 3.2 | 4.8 | 0.00 | 0.00 | 0.00 | 40 | 1014.2 |
| 20260503194006 | 18 | 220 | 3.2 | 4.8 | 0.00 | 0.00 | 0.00 | 42 | 1012.6 |
| 20260503193625 | 18 | 208 | 3.2 | 3.2 | 0.00 | 0.00 | 0.00 | 40 | 1014.1 |
| 20260503193506 | 18 | 225 | 3.2 | 4.8 | 0.00 | 0.00 | 0.00 | 42 | 1012.7 |
| 20260503193125 | 18 | 214 | 3.2 | 3.2 | 0.00 | 0.00 | 0.00 | 40 | 1014.2 |
| 20260503193006 | 18 | 221 | 3.2 | 4.8 | 0.00 | 0.00 | 0.00 | 41 | 1012.5 |
| 20260503192625 | 18 | 215 | 3.2 | 3.2 | 0.00 | 0.00 | 0.00 | 39 | 1014.4 |
| 20260503192507 | 18 | 220 | 3.2 | 4.8 | 0.00 | 0.00 | 0.00 | 41 | 1012.6 |
| 20260503192125 | 18 | 216 | 3.2 | 3.2 | 0.00 | 0.00 | 0.00 | 39 | 1014.1 |
| 20260503192006 | 18 | 222 | 3.2 | 4.8 | 0.00 | 0.00 | 0.00 | 41 | 1012.6 |
| 20260503191625 | 18 | 216 | 3.2 | 3.2 | 0.00 | 0.00 | 0.00 | 39 | 1014.3 |
| 20260503191125 | 18 | 221 | 3.2 | 3.2 | 0.00 | 0.00 | 0.00 | 37 | 1014.2 |
| 20260503190506 | 19 | 225 | 3.2 | 4.8 | 0.00 | 0.00 | 0.00 | 38 | 1012.4 |
| 20260503190130 | 19 | 221 | 3.2 | 3.2 | 0.00 | 0.00 | 0.00 | 37 | 1014.1 |
| 20260503190007 | 19 | 225 | 3.2 | 4.8 | 0.00 | 0.00 | 0.00 | 38 | 1012.5 |
| 20260503185624 | 19 | 226 | 3.2 | 3.2 | 0.00 | 0.00 | 0.00 | 36 | 1014.2 |
| 20260503185506 | 19 | 225 | 3.2 | 4.8 | 0.00 | 0.00 | 0.00 | 38 | 1012.5 |
| 20260503185124 | 19 | 226 | 3.2 | 3.2 | 0.00 | 0.00 | 0.00 | 36 | 1014.2 |
| 20260503185006 | 19 | 225 | 3.2 | 4.8 | 0.00 | 0.00 | 0.00 | 38 | 1012.4 |
| 20260503184506 | 20 | 225 | 3.2 | 4.8 | 0.00 | 0.00 | 0.00 | 36 | 1012.3 |
| 20260503184124 | 20 | 225 | 3.2 | 3.2 | 0.00 | 0.00 | 0.00 | 34 | 1014.0 |
| 20260503184006 | 20 | 225 | 3.2 | 4.8 | 0.00 | 0.00 | 0.00 | 35 | 1012.3 |
| 20260503183625 | 20 | 224 | 3.2 | 3.2 | 0.00 | 0.00 | 0.00 | 34 | 1014.1 |
| 20260503183506 | 20 | 225 | 3.2 | 4.8 | 0.00 | 0.00 | 0.00 | 35 | 1012.3 |
| 20260503183125 | 21 | 215 | 3.2 | 3.2 | 0.00 | 0.00 | 0.00 | 34 | 1013.8 |
| 20260503183006 | 21 | 222 | 3.2 | 4.8 | 0.00 | 0.00 | 0.00 | 33 | 1012.3 |
| 20260503182625 | 21 | 209 | 3.2 | 4.8 | 0.00 | 0.00 | 0.00 | 32 | 1013.8 |
| 20260503182506 | 21 | 222 | 4.8 | 6.4 | 0.00 | 0.00 | 0.00 | 33 | 1012.2 |
| 20260503182006 | 21 | 207 | 6.4 | 9.7 | 0.00 | 0.00 | 0.00 | 33 | 1012.1 |
| 20260503181624 | 21 | 205 | 6.4 | 9.7 | 0.00 | 0.00 | 0.00 | 32 | 1013.7 |
| 20260503181507 | 21 | 198 | 6.4 | 9.7 | 0.00 | 0.00 | 0.00 | 33 | 1012.0 |
| 20260503181125 | 21 | 214 | 6.4 | 9.7 | 0.00 | 0.00 | 0.00 | 32 | 1013.7 |
| 20260503181006 | 21 | 214 | 4.8 | 6.4 | 0.00 | 0.00 | 0.00 | 32 | 1012.0 |
| 20260503180625 | 22 | 225 | 6.4 | 9.7 | 0.00 | 0.00 | 0.00 | 30 | 1013.7 |
| 20260503180506 | 22 | 211 | 4.8 | 9.7 | 0.00 | 0.00 | 0.00 | 31 | 1012.1 |
| 20260503180131 | 22 | 215 | 6.4 | 9.7 | 0.00 | 0.00 | 0.00 | 29 | 1013.6 |
| 20260503180006 | 22 | 206 | 6.4 | 9.7 | 0.00 | 0.00 | 0.00 | 31 | 1012.1 |
| 20260503175625 | 22 | 210 | 6.4 | 9.7 | 0.00 | 0.00 | 0.00 | 29 | 1013.6 |
| 20260503175506 | 22 | 213 | 6.4 | 9.7 | 0.00 | 0.00 | 0.00 | 31 | 1012.0 |
| 20260503175125 | 22 | 203 | 6.4 | 8.0 | 0.00 | 0.00 | 0.00 | 28 | 1013.6 |
| 20260503174506 | 23 | 221 | 6.4 | 8.0 | 0.00 | 0.00 | 0.00 | 29 | 1012.0 |
| 20260503174125 | 23 | 224 | 6.4 | 9.7 | 0.00 | 0.00 | 0.00 | 28 | 1013.6 |
| 20260503174006 | 23 | 215 | 6.4 | 9.7 | 0.00 | 0.00 | 0.00 | 29 | 1012.0 |
| 20260503173624 | 23 | 231 | 6.4 | 11.3 | 0.00 | 0.00 | 0.00 | 27 | 1013.5 |
| 20260503173506 | 23 | 211 | 8.0 | 11.3 | 0.00 | 0.00 | 0.00 | 28 | 1011.9 |
| 20260503173124 | 23 | 227 | 9.7 | 12.9 | 0.00 | 0.00 | 0.00 | 27 | 1013.5 |
| 20260503173007 | 23 | 224 | 9.7 | 12.9 | 0.00 | 0.00 | 0.00 | 27 | 1012.0 |
| 20260503172506 | 24 | 228 | 9.7 | 12.9 | 0.00 | 0.00 | 0.00 | 27 | 1011.9 |
| 20260503172125 | 23 | 206 | 11.3 | 16.1 | 0.00 | 0.00 | 0.00 | 27 | 1013.9 |
| 20260503171624 | 23 | 221 | 11.3 | 16.1 | 0.00 | 0.00 | 0.00 | 26 | 1013.3 |
| 20260503171506 | 24 | 211 | 11.3 | 16.1 | 0.00 | 0.00 | 0.00 | 26 | 1011.9 |
| 20260503171124 | 24 | 212 | 11.3 | 17.7 | 0.00 | 0.00 | 0.00 | 26 | 1013.5 |
| 20260503171006 | 25 | 219 | 11.3 | 17.7 | 0.00 | 0.00 | 0.00 | 26 | 1011.9 |
| 20260503170624 | 24 | 202 | 11.3 | 17.7 | 0.00 | 0.00 | 0.00 | 25 | 1013.7 |
| 20260503170507 | 25 | 220 | 12.9 | 17.7 | 0.00 | 0.00 | 0.00 | 25 | 1012.0 |
| 20260503150624 | 25 | 212 | 12.9 | 20.9 | 0.00 | 0.00 | 0.00 | 24 | 1014.0 |
| 20260503150130 | 26 | 211 | 12.9 | 17.7 | 0.00 | 0.00 | 0.00 | 23 | 1014.0 |
| 20260503140130 | 26 | 226 | 14.5 | 17.7 | 0.00 | 0.00 | 0.00 | 18 | 1014.7 |
| 20260503131124 | 26 | 234 | 16.1 | 19.3 | 0.00 | 0.00 | 0.00 | 19 | 1015.3 |
| 20260503131006 | 25 | 237 | 14.5 | 19.3 | 0.00 | 0.00 | 0.00 | 23 | 1013.8 |
| 20260503130625 | 25 | 192 | 14.5 | 19.3 | 0.00 | 0.00 | 0.00 | 22 | 1015.2 |
| 20260503130506 | 25 | 194 | 14.5 | 17.7 | 0.00 | 0.00 | 0.00 | 23 | 1013.6 |
| 20260503130133 | 25 | 190 | 14.5 | 22.5 | 0.00 | 0.00 | 0.00 | 22 | 1015.1 |
| 20260503120130 | 25 | 187 | 16.1 | 24.1 | 0.00 | 0.00 | 0.00 | 23 | 1015.7 |
| 20260503110625 | 25 | 195 | 16.1 | 20.9 | 0.00 | 0.00 | 0.00 | 24 | 1016.5 |
| 20260503110506 | 24 | 208 | 14.5 | 19.3 | 0.00 | 0.00 | 0.00 | 27 | 1014.8 |
| 20260503110131 | 25 | 179 | 14.5 | 17.7 | 0.00 | 0.00 | 0.00 | 23 | 1016.3 |
| 20260503100131 | 23 | 201 | 14.5 | 20.9 | 0.00 | 0.00 | 0.00 | 28 | 1017.3 |
| 20260503090506 | 21 | 223 | 14.5 | 24.1 | 0.00 | 0.00 | 0.00 | 34 | 1016.1 |
| 20260503090130 | 21 | 215 | 16.1 | 22.5 | 0.00 | 0.00 | 0.00 | 32 | 1018.0 |
| 20260503081625 | 20 | 222 | 14.5 | 20.9 | 0.00 | 0.00 | 0.00 | 36 | 1018.0 |
| 20260503081124 | 20 | 227 | 14.5 | 19.3 | 0.00 | 0.00 | 0.00 | 37 | 1018.1 |
| 20260503080625 | 20 | 204 | 14.5 | 19.3 | 0.00 | 0.00 | 0.00 | 37 | 1018.1 |
| 20260503080506 | 20 | 231 | 16.1 | 17.7 | 0.00 | 0.00 | 0.00 | 39 | 1016.2 |
| 20260503080130 | 20 | 205 | 14.5 | 16.1 | 0.00 | 0.00 | 0.00 | 38 | 1017.9 |
| 20260503072624 | 18 | 226 | 14.5 | 19.3 | 0.00 | 0.00 | 0.00 | 40 | 1017.8 |
| 20260503072506 | 19 | 203 | 16.1 | 19.3 | 0.00 | 0.00 | 0.00 | 42 | 1016.2 |
| 20260503072006 | 18 | 200 | 14.5 | 17.7 | 0.00 | 0.00 | 0.00 | 42 | 1016.2 |
| 20260503071625 | 18 | 199 | 14.5 | 22.5 | 0.00 | 0.00 | 0.00 | 41 | 1017.9 |
| 20260503071506 | 18 | 189 | 14.5 | 20.9 | 0.00 | 0.00 | 0.00 | 43 | 1016.3 |
| 20260503071124 | 18 | 205 | 16.1 | 22.5 | 0.00 | 0.00 | 0.00 | 40 | 1018.0 |
| 20260503071006 | 18 | 187 | 14.5 | 20.9 | 0.00 | 0.00 | 0.00 | 43 | 1016.2 |
| 20260503070625 | 18 | 242 | 16.1 | 19.3 | 0.00 | 0.00 | 0.00 | 42 | 1017.9 |
| 20260503070506 | 18 | 213 | 16.1 | 22.5 | 0.00 | 0.00 | 0.00 | 45 | 1016.2 |
| 20260503070130 | 17 | 230 | 16.1 | 24.1 | 0.00 | 0.00 | 0.00 | 42 | 1017.8 |
| 20260503060131 | 16 | 193 | 14.5 | 17.7 | 0.00 | 0.00 | 0.00 | 45 | 1017.9 |
| 20260503055125 | 15 | 193 | 12.9 | 17.7 | 0.00 | 0.00 | 0.00 | 48 | 1017.6 |
| 20260503055006 | 16 | 176 | 12.9 | 17.7 | 0.00 | 0.00 | 0.00 | 50 | 1016.2 |
| 20260503054506 | 15 | 176 | 11.3 | 17.7 | 0.00 | 0.00 | 0.00 | 52 | 1016.0 |
| 20260503054125 | 15 | 195 | 11.3 | 17.7 | 0.00 | 0.00 | 0.00 | 50 | 1017.6 |
| 20260503054006 | 15 | 195 | 11.3 | 14.5 | 0.00 | 0.00 | 0.00 | 53 | 1016.0 |
| 20260503053624 | 15 | 191 | 11.3 | 12.9 | 0.00 | 0.00 | 0.00 | 50 | 1017.9 |
| 20260503053506 | 15 | 201 | 12.9 | 14.5 | 0.00 | 0.00 | 0.00 | 53 | 1016.2 |
| 20260503053005 | 15 | 199 | 12.9 | 17.7 | 0.00 | 0.00 | 0.00 | 54 | 1016.2 |
| 20260503052625 | 15 | 190 | 12.9 | 20.9 | 0.00 | 0.00 | 0.00 | 52 | 1017.9 |
| 20260503052506 | 14 | 194 | 12.9 | 17.7 | 0.00 | 0.00 | 0.00 | 55 | 1016.1 |
| 20260503052125 | 14 | 187 | 11.3 | 20.9 | 0.00 | 0.00 | 0.00 | 54 | 1017.8 |
| 20260503052006 | 13 | 198 | 11.3 | 17.7 | 0.00 | 0.00 | 0.00 | 58 | 1016.2 |
| 20260503051624 | 13 | 198 | 9.7 | 12.9 | 0.00 | 0.00 | 0.00 | 55 | 1018.0 |
| 20260503051506 | 13 | 204 | 9.7 | 12.9 | 0.00 | 0.00 | 0.00 | 61 | 1016.2 |
| 20260503051125 | 13 | 192 | 8.0 | 11.3 | 0.00 | 0.00 | 0.00 | 57 | 1018.0 |
| 20260503051006 | 12 | 194 | 8.0 | 11.3 | 0.00 | 0.00 | 0.00 | 65 | 1016.3 |
| 20260503050625 | 13 | 172 | 8.0 | 11.3 | 0.00 | 0.00 | 0.00 | 59 | 1018.0 |
| 20260503050506 | 12 | 194 | 8.0 | 12.9 | 0.00 | 0.00 | 0.00 | 68 | 1016.3 |
| 20260503050130 | 13 | 168 | 4.8 | 11.3 | 0.00 | 0.00 | 0.00 | 61 | 1018.2 |
| 20260503050006 | 11 | 196 | 4.8 | 12.9 | 0.00 | 0.00 | 0.00 | 72 | 1016.4 |
| 20260503045625 | 13 | 149 | 3.2 | 4.8 | 0.00 | 0.00 | 0.00 | 68 | 1018.2 |
| 20260503045506 | 11 | 124 | 3.2 | 4.8 | 0.00 | 0.00 | 0.00 | 74 | 1016.4 |
| 20260503045125 | 13 | 127 | 3.2 | 3.2 | 0.00 | 0.00 | 0.00 | 71 | 1018.3 |
| 20260503045005 | 11 | 120 | 3.2 | 3.2 | 0.00 | 0.00 | 0.00 | 74 | 1016.3 |
| 20260503044625 | 12 | 130 | 1.6 | 3.2 | 0.00 | 0.00 | 0.00 | 75 | 1018.3 |
| 20260503044506 | 10 | 134 | 1.6 | 3.2 | 0.00 | 0.00 | 0.00 | 75 | 1016.4 |
| 20260503044124 | 11 | 139 | 1.6 | 3.2 | 0.00 | 0.00 | 0.00 | 82 | 1018.2 |
| 20260503044006 | 10 | 130 | 1.6 | 3.2 | 0.00 | 0.00 | 0.00 | 76 | 1016.3 |
| 20260503043625 | 10 | 139 | 1.6 | 3.2 | 0.00 | 0.00 | 0.00 | 83 | 1018.1 |
| 20260503043505 | 10 | 135 | 3.2 | 3.2 | 0.00 | 0.00 | 0.00 | 77 | 1016.2 |
| 20260503043125 | 8 | 136 | 3.2 | 4.8 | 0.00 | 0.00 | 0.00 | 84 | 1018.3 |
| 20260503043006 | 10 | 135 | 3.2 | 3.2 | 0.00 | 0.00 | 0.00 | 78 | 1016.5 |
| 20260503042625 | 8 | 133 | 3.2 | 4.8 | 0.00 | 0.00 | 0.00 | 85 | 1018.2 |
| 20260503042506 | 9 | 132 | 3.2 | 3.2 | 0.00 | 0.00 | 0.00 | 79 | 1016.4 |
| 20260503042006 | 8 | 132 | 3.2 | 3.2 | 0.00 | 0.00 | 0.00 | 80 | 1016.4 |
| 20260503041625 | 7 | 129 | 1.6 | 3.2 | 0.00 | 0.00 | 0.00 | 84 | 1018.4 |
| 20260503041506 | 8 | 132 | 3.2 | 3.2 | 0.00 | 0.00 | 0.00 | 82 | 1016.5 |
| 20260503041125 | 7 | 130 | 1.6 | 3.2 | 0.00 | 0.00 | 0.00 | 85 | 1018.5 |
| 20260503040624 | 7 | 135 | 3.2 | 3.2 | 0.00 | 0.00 | 0.00 | 85 | 1018.3 |
| 20260503040506 | 7 | 135 | 3.2 | 3.2 | 0.00 | 0.00 | 0.00 | 82 | 1016.6 |
| 20260503040131 | 7 | 135 | 3.2 | 3.2 | 0.00 | 0.00 | 0.00 | 85 | 1018.4 |
| 20260503040006 | 7 | 128 | 1.6 | 3.2 | 0.00 | 0.00 | 0.00 | 82 | 1016.4 |
| 20260503035625 | 6 | 135 | 1.6 | 3.2 | 0.00 | 0.00 | 0.00 | 86 | 1018.5 |
| 20260503035505 | 7 | 117 | 0.0 | 3.2 | 0.00 | 0.00 | 0.00 | 82 | 1016.4 |
| 20260503035125 | 6 | 135 | 0.0 | 1.6 | 0.00 | 0.00 | 0.00 | 85 | 1018.2 |
| 20260503035006 | 7 | 181 | 0.0 | 1.6 | 0.00 | 0.00 | 0.00 | 82 | 1016.4 |
| 20260503034625 | 6 | 175 | 0.0 | 1.6 | 0.00 | 0.00 | 0.00 | 86 | 1018.4 |
| 20260503034506 | 7 | 156 | 1.6 | 3.2 | 0.00 | 0.00 | 0.00 | 82 | 1016.5 |
| 20260503034006 | 7 | 142 | 1.6 | 3.2 | 0.00 | 0.00 | 0.00 | 83 | 1016.3 |
| 20260503033625 | 6 | 146 | 1.6 | 3.2 | 0.00 | 0.00 | 0.00 | 87 | 1018.6 |
| 20260503033506 | 7 | 136 | 3.2 | 3.2 | 0.00 | 0.00 | 0.00 | 83 | 1016.4 |
| 20260503033124 | 6 | 144 | 3.2 | 3.2 | 0.00 | 0.00 | 0.00 | 87 | 1018.4 |
| 20260503033006 | 7 | 150 | 3.2 | 3.2 | 0.00 | 0.00 | 0.00 | 83 | 1016.2 |
| 20260503032625 | 6 | 156 | 3.2 | 3.2 | 0.00 | 0.00 | 0.00 | 86 | 1018.5 |
| 20260503032506 | 6 | 174 | 3.2 | 3.2 | 0.00 | 0.00 | 0.00 | 83 | 1016.4 |
| 20260503032006 | 6 | 181 | 3.2 | 3.2 | 0.00 | 0.00 | 0.00 | 83 | 1016.4 |
| 20260503031625 | 5 | 181 | 0.0 | 3.2 | 0.00 | 0.00 | 0.00 | 85 | 1018.4 |
| 20260503031506 | 6 | 181 | 1.6 | 3.2 | 0.00 | 0.00 | 0.00 | 82 | 1016.5 |
| 20260503031125 | 5 | 0 | 0.0 | 0.0 | 0.00 | 0.00 | 0.00 | 85 | 1018.4 |
| 20260503031005 | 6 | 181 | 1.6 | 3.2 | 0.00 | 0.00 | 0.00 | 82 | 1016.3 |
| 20260503030625 | 5 | 0 | 0.0 | 0.0 | 0.00 | 0.00 | 0.00 | 85 | 1018.3 |
| 20260503030506 | 6 | 181 | 1.6 | 3.2 | 0.00 | 0.00 | 0.00 | 82 | 1016.4 |
| 20260503030006 | 6 | 181 | 1.6 | 3.2 | 0.00 | 0.00 | 0.00 | 82 | 1016.5 |
| 20260503025625 | 5 | 151 | 0.0 | 3.2 | 0.00 | 0.00 | 0.00 | 84 | 1018.6 |
| 20260503025506 | 6 | 168 | 1.6 | 3.2 | 0.00 | 0.00 | 0.00 | 82 | 1016.3 |
| 20260503025125 | 6 | 144 | 0.0 | 3.2 | 0.00 | 0.00 | 0.00 | 84 | 1018.3 |
| 20260503025006 | 6 | 169 | 1.6 | 3.2 | 0.00 | 0.00 | 0.00 | 82 | 1016.3 |
| 20260503024625 | 6 | 160 | 0.0 | 3.2 | 0.00 | 0.00 | 0.00 | 82 | 1018.6 |
| 20260503024506 | 6 | 178 | 1.6 | 3.2 | 0.00 | 0.00 | 0.00 | 81 | 1016.4 |
| 20260503024125 | 6 | 181 | 0.0 | 1.6 | 0.00 | 0.00 | 0.00 | 82 | 1018.3 |
| 20260503024006 | 6 | 181 | 1.6 | 3.2 | 0.00 | 0.00 | 0.00 | 81 | 1016.3 |
| 20260503023625 | 6 | 0 | 0.0 | 0.0 | 0.00 | 0.00 | 0.00 | 82 | 1018.3 |
| 20260503023506 | 7 | 181 | 1.6 | 3.2 | 0.00 | 0.00 | 0.00 | 79 | 1016.4 |
| 20260503023124 | 6 | 0 | 0.0 | 0.0 | 0.00 | 0.00 | 0.00 | 82 | 1018.2 |
| 20260503023006 | 7 | 181 | 1.6 | 3.2 | 0.00 | 0.00 | 0.00 | 79 | 1016.4 |
| 20260503022125 | 7 | 181 | 0.0 | 1.6 | 0.00 | 0.00 | 0.00 | 81 | 1018.3 |